Regional Weather Roundup
Issued by NWS Wakefield, VA

Home | Current Version | Previous Version | Graphics & Text | Print | Product List | Glossary On
Versions: 1 2 3 4 5 6 7 8 9 10 11 12 13 14 15 16 17 18 19 20 21 22 23 24 25 26 27 28 29 30 31 32 33 34 35 36 37 38 39 40 41 42 43 44 45 46 47 48 49 50
000
ASUS41 KAKQ 282015
RWRAKQ

REGIONAL WEATHER ROUNDUP
NATIONAL WEATHER SERVICE WAKEFIELD VA
400 PM EDT THU JUL 28 2016

Note: "fair" indicates few or no clouds below 12,000 feet with no
significant weather and/or obstructions to visibility. * = Denotes
station may not report precipitation (e.g., rain,snow,etc.),
thunder or fog.

VAZ042-051-052>054-056-282100-
NORTHERN VIRGINIA

CITY           SKY/WX    TMP DP  RH WIND       PRES   REMARKS
WASH NATIONAL  PTSUNNY   93  74  53 S10       29.80F HX 103
DULLES         TSTM      84  67  56 N18G29    29.83F
FORT BELVOIR   NOT AVBL
QUANTICO       PTSUNNY   92  75  57 S8        29.80F HX 103
FREDERICKSBRG*   N/A     94  75  53 S7        29.80F HX 105
STAFFORD*      FAIR      92  71  49 W3        29.85F HX  98
WARRENTON      FAIR      93  67  42 S7        29.82F HX  97
CULPEPER*      CLOUDY    92  76  58 SW3       29.83F HX 104
MANASSAS*      MOSUNNY   91  73  55 S7        29.80F HX 100
LEESBURG*      FAIR      81  75  83 N14G25    29.85F THUNDER
WINCHESTER     TSTM      72  70  94 CALM      29.89F
FRONT ROYAL*   CLOUDY    72  72 100 NE7       29.89R
LURAY*         NOT AVBL
$$

VAZ048-049-060>072-079>083-282100-
CENTRAL AND SOUTH CENTRAL VIRGINIA

CITY           SKY/WX    TMP DP  RH WIND       PRES   REMARKS
RICHMOND       FAIR      92  75  57 S10       29.81F HX 103
CHESTERFIELD*  FAIR      93  70  46 S12       29.83F HX  99
PETERSBURG*    FAIR      96  78  56 SW7       29.82F HX 113
HANOVER        PTSUNNY   93  73  52 S12       29.82F HX 102
TAPPAHANNOCK*  FAIR      98  69  39 SW8       29.82F HX 103
QUINTON*       FAIR      94  78  61 S8        29.82F HX 109
CHARLOTTSVILLE FAIR      95  69  42 S13       29.82F HX 100
GORDONSVILLE*  FAIR      93  76  57 CALM      29.81F HX 105
ORANGE*          N/A     91  73  55 CALM      29.84F HX 100
LOUISA*        FAIR      97  79  56 S5        29.82F HX 115
BUMPASS*       MOCLDY    93  78  62 CALM      29.82F HX 108
FARMVILLE*     NOT AVBL
CREWE*         NOT AVBL
FORT PICKETT*  FAIR      93  78  61 S9G16     29.84F HX 108
CHASE CITY*    FAIR      94  74  52 S3        29.84F HX 103
CLARKSVILLE*   FAIR      93  75  55 S7        29.83F HX 104
SOUTH HILL*    PTSUNNY   91  77  63 S12       29.89F HX 104
LAWRENCEVILLE* FAIR      93  78  62 SW5       29.83F HX 109
EMPORIA*       FAIR      91  77  62 S6        29.84F HX 105
$$

VAZ088>098-282100-
SOUTHEAST VIRGINIA

CITY           SKY/WX    TMP DP  RH WIND       PRES   REMARKS
NORFOLK        PTSUNNY   91  77  63 VRB5      29.81F HX 104
VIRGINIA BEACH PTSUNNY  100  77  47 SW13      29.80F THUNDER HX 116
NORFOLK NAVAL  PTSUNNY   94  77  57 W6        29.81F HX 108
WEST POINT*    FAIR      94  75  54 SW6       29.83F HX 105
SALUDA*        FAIR      92  80  68 S8        29.81F HX 111
NEWPORT NEWS   FAIR      95  77  55 SW12      29.81F HX 109
LANGLEY AFB    NOT AVBL
FORT EUSTIS    NOT AVBL
WILLIAMSBURG*  FAIR      99  79  53 SW8       29.82F HX 117
HR EXEC AP*    FAIR      97  79  56 SW8       29.82F HX 115
FRANKLIN*      FAIR      95  79  59 SW8       29.83F HX 112
US460-WAKEFLD  FAIR      93  77  59 S6        29.82F HX 107
$$

VAZ020-022-025-037-045-282100-
WEST CENTRAL AND SOUTHWEST VIRGINIA

CITY           SKY/WX    TMP DP  RH WIND       PRES   REMARKS
STAUNTON*      FAIR      88  74  63 S7        29.88F HX  96
WAYNESBORO*    FAIR      88  71  57 CALM      29.88F
HOT SPRINGS VA NOT AVBL
LYNCHBURG      FAIR      91  74  57 S9        29.86F HX 100
DANVILLE       FAIR      90  74  59 SW7       29.84F HX  99
SOUTH BOSTON*  MOCLDY   N/A N/A N/A S6        29.83F
MARTINSVILLE   FAIR      92  72  51 S5        29.88F HX  99
ROANOKE        PTSUNNY   88  71  57 S10       29.87F THUNDER
BLACKSBURG     CLOUDY    83  71  67 S8        29.97R
DUBLIN*        TSTM      77  74  88 S5        29.96R VSB 1
MARION*        FAIR      85  70  61 W14       30.00S
HILLSVILLE*    TSTM      73  72  98 S5        29.98F
RICHLANDS*     CLOUDY    78  71  80 SW7       30.00S
WISE*          CLOUDY    79  63  57 SW8       30.00F
ABINGDON*      PTSUNNY   85  71  61 W12       29.95F
$$

MDZ021>025-VAZ099-100-282100-
SOUTHERN MARYLAND AND THE DELMARVA PENINSULA

CITY           SKY/WX    TMP DP  RH WIND       PRES   REMARKS
PATUXENT RIVER PTSUNNY   91  78  65 SE12      29.80F HX 106
BAY BRIDGE APT SUNNY     93  77  59 S12       29.80F HX 107
LEONARDTOWN    MOSUNNY   91  72  52 SW6       29.82  HX  98
DOVER          NOT AVBL
GEORGETOWN     CLOUDY    81  76  84 SE10      29.85F
EASTON         MOSUNNY   86  79  79 SE10      29.85F HX  99
CAMBRIDGE      MOSUNNY   82  73  74 E10       29.82F
SALISBURY      NOT AVBL
OCEAN CITY       N/A    N/A N/A N/A MISG      29.89S
WALLOPS ISLAND PTSUNNY   86  79  79 S10       29.85S HX  99
ACCOMACK*      NOT AVBL
$$

NCZ012>017-030>032-282100-
NORTH CENTRAL AND EASTERN NORTH CAROLINA

CITY           SKY/WX    TMP DP  RH WIND       PRES   REMARKS
ROANOKE RAPIDS FAIR      91  77  62 SW12      29.85F HX 105
RALEIGH        MOSUNNY   96  74  48 SW13G21   29.85F HX 107
ELIZABETH CITY MOSUNNY   95  78  58 S8        29.83F HX 111
AHOSKIE*       SUNNY     93  78  61 S3        29.83F HX 108
EDENTON*       MOSUNNY   98  75  48 W10G17    29.84F HX 109
CURRITUCK*     SUNNY     95  78  56 SW8       29.85F HX 110
KILL DEVIL HLS MOSUNNY   96  77  54 S6        29.84F HX 112
MANTEO           N/A     92  80  66 S17       29.85F HX 110
CAPE HATTERAS  SUNNY     86  80  82 SW10      29.88F HX 101
TARBORO*       FAIR      96  75  50 SW9       29.84F HX 109
GOLDSBORO      NOT AVBL
WASHINGTON     SUNNY     95  75  51 SW15      29.84F HX 106
GREENVILLE     MOSUNNY   97  73  46 SW14G20   29.87F HX 107
NEW BERN       SUNNY     96  73  47 SW8       29.87F HX 105
WILMINGTON     MOSUNNY   96  73  47 SW15G21   29.89F HX 105
$$

VAZ048-282100-
ELSEWHERE

CITY           SKY/WX    TMP DP  RH WIND       PRES   REMARKS
HARRISBURG PA  LGT RAIN  77  72  84 S9        29.85F
BALTIMORE      TSTM      81  72  74 NE12      29.82S
ANNAPOLIS      SUNNY     89  79  72 SE13      29.80F HX 104
ANDREWS AFB    NOT AVBL
PHILADELPHIA   LGT RAIN  76  73  91 S6        29.89F FOG
GREENSBORO     MOSUNNY   94  69  44 SW13      29.86F HX  99
ROCKY MOUNT    MOSUNNY   96  73  47 SW10      29.84F HX 105
$$

VAZ100-282100-
MARINE

STATION/POSITION TIME  TEMP    WIND        PRES    WAVE   SWELL
                       AIR SEA DIR/SP/G            HT/PER HT/PER
                 (UTC) (F)     (DEG/KT/KT) (MB)    (FT/S) (FT/S)
BRANDYWINE LGT   1900   76     190/ 17/ 20   N/A
CAPE MAY NJ      1900   78 74  180/ 11/ 18 1011.4R
LEWES DE         1900   78 77  180/  6/  9 1011.4R
OCEAN-CITY-INLET 1900   78 71   10/  2/  2 1012.1F
WACHAPREAGUE VA  1900   84 87  160/  9/ 10 1010.8F
THOMAS POINT MD  2000   86 86  160/ 10/ 11 1010.6F
GOOSES REEF MD   2000   88 87  160/ 10/ 12 1010.1F   1/ 2
COVE POINT MD    1900   85     170/ 11/ 12 1010.9F
SOLOMONS ISLAND  1900   90 86  130/  1/  3   N/A
BISHOPS HEAD MD  1900   88     170/  9/ 11 1010.7F
PINEY POINT MD   1900          110/  9/  9   N/A
POTOMAC MD       2000   88 86  160/ 14/ 16 1008.1F   2/ 3
CAMBRIDGE MD     1900   82 87   80/ 16/ 20 1010.1R
LEWISETTA VA     1900   92 89  210/  6/  8 1009.5F
RAPPAHANNOCK LGT 1900          180/ 10/ 11 1011.0F
STINGRAY PT      2000   88 88  100/ 12/ 14 1010.2F   1/ 2
YORK RVR RNG VA  1900   86     140/ 11/ 11 1009.9F
YORKTOWN VA      1900   90 85   60/  4/  5 1009.9F
JAMESTOWN VA     2000   93     200/  6/ 10   N/A     1
DOMINION TERM VA 1900   92     240/  1/  3 1010.5F
KIPTOPEKE VA     1900      85  180/  9/ 11   N/A
CHES BAY BRIDGE  1900   89 79   70/  4/  5 1010.2F
CAPE HENRY VA    1900   86     140/ 12/ 15   N/A
WILLOUBY STN VA  1900   86      70/  5/  6   N/A
CAPE HENRY BUOY  1912      78                N/A     1/ 8
1ST LANDING BUOY 2000   82 82   90/ 12/ 25 1009.9R   1/ 3
CAPE CHARLES BUO 1926      81                N/A     1/ 8
OFFSHORE WE BUOY 1921      84                N/A     2/ 8
64NM E OF VA BCH 1950   84 84  180/ 10/ 12 1010.7F   2/ 6   2/ 6
DUCK PIER NC     1900   85 73  110/  6/  7 1010.7F
44100 DUCK FRF   1905      81                N/A     1/ 7
44056 DUCK FRF   1911      82                N/A     1/ 8
OREGON INLET NC  1900   86 85  190/ 14/ 15 1011.6F
HATTERAS NC      1900   87 83  210/ 10/ 15 1012.1F
DIAMOND SHLS NC  1950   86 86  220/ 16/ 17 1011.7F   2/ 6   2/ 6
CAPE LOOKOUT NC  2000   88     220/ 10/ 13 1011.9F
$$



USA.gov is the U.S. government's official web portal to all federal, state and local government web resources and services.